Location: Browne Barr
(41.2080°N, 111.9480°W)
Time: 05:52:52
(UTC+00:00)

X-37B - Pass Details

Date: 06 August 2021
Orbit: 381 x 393 km, 45.0° (Epoch: 29 August)

Event Time Altitude Azimuth Distance (km) Brightness Sun altitude
Exits shadow 09:38:14 19° 69° (ENE) 974 3.1 -25.4°
Drops below altitude 10° 09:39:17 10° 69° (ENE) 1,397 4.1 -25.3°
Sets 09:41:21 0° 69° (ENE) 2,252 5.3 -25.1°
